Regional Weather Roundup
Issued by NWS

Home | Current Version | Previous Version | Text Only | Print | Product List | Glossary Off
Versions: 1 2 3 4 5 6 7 8 9 10 11 12 13 14 15 16 17 18 19 20 21 22 23 24 25 26 27 28 29 30 31 32 33 34 35 36 37 38 39 40 41 42 43 44 45 46 47 48 49 50

000
ASUS45 KCYS 021510
RWRWY

WYOMING REGIONAL WEATHER ROUNDUP
NATIONAL WEATHER SERVICE CHEYENNE WY
900 AM MDT WED SEP 02 2015

NOTE:  "FAIR" INDICATES FEW OR NO CLOUDS BELOW 12,000 FEET
WITH NO SIGNIFICANT WEATHER AND/OR OBSTRUCTIONS TO VISIBILITY.

WYZ001-021600-
YELLOWSTONE NATIONAL PARK

CITY           SKY/WX    TMP DP  RH WIND       PRES   REMARKS
LK YELLOWSTONE   N/A     59  42  53 CALM      30.17R
W YELLOWSTONE  NOT AVBL

$$
WYZ002>013-054>058-071-098>099-021600-
NORTHERN WYOMING

CITY           SKY/WX    TMP DP  RH WIND       PRES   REMARKS
JACKSON        FAIR      61  39  44 S7        30.10F
CODY           FAIR      70  39  32 S6        29.93F
GREYBULL       FAIR      77  44  30 SE5       29.87F
WORLAND        FAIR      78  42  27 S9        29.90F
SHERIDAN       FAIR      80  39  23 SW12      29.85S
BUFFALO        FAIR      85  38  18 SW12      29.96S
GILLETTE       FAIR      78  44  29 SW17      29.91F
HULETT         FAIR      77  43  29 SW13G20   29.94S
NEWCASTLE      FAIR      73  39  29 SE6       29.96S

$$
WYZ014>020-022>026-101>103-021600-
CENTRAL WYOMING

CITY           SKY/WX    TMP DP  RH WIND       PRES   REMARKS
BIG PINEY      FAIR      55  38  52 E5        30.19S
PINEDALE       FAIR      61  41  48 E7        30.20F
DUBOIS         FAIR      59  36  41 CALM      30.13S
LANDER         FAIR      78  35  21 SW17G26   30.02F
RIVERTON       FAIR      67  42  40 SW5       30.04S
CASPER         FAIR      74  40  29 SW23G31   30.06S
DOUGLAS        FAIR      76  41  28 NW8       30.04S

$$
WYZ021-027>030-104>119-021600-
SOUTHERN WYOMING

CITY           SKY/WX    TMP DP  RH WIND       PRES   REMARKS
EVANSTON       FAIR      66  39  37 SW14      30.21S
KEMMERER       FAIR      66  34  30 SW22G30   30.20F
FORT BRIDGER   SUNNY     72  37  28 SW28G37   30.22S
ROCK SPRINGS   FAIR      64  45  49 S7        30.20S
DIXON          FAIR      61  46  57 S6        30.26S
RAWLINS        FAIR      69  40  34 VRB3      30.22S
SARATOGA       FAIR      64  43  45 SE12      30.26S
LARAMIE        FAIR      65  43  44 SW13G23   30.25S
CHEYENNE       FAIR      76  42  29 W17       30.14S
TORRINGTON     FAIR      68  46  45 CALM      29.99S
PINE BLUFFS    FAIR      73  41  31 CALM      30.09S

$$


USA.gov is the U.S. government's official web portal to all federal, state and local government web resources and services.